{"data":{"norad_id":59239,"epoch":"2026-05-24T22:46:40.195776Z","epoch_age_seconds":78687,"freshness":"FRESH","line1":"1 59239U 24049J   26144.94907634  .00001052  00000+0  47723-4 0  9990","line2":"2 59239  43.0021  62.0142 0000981 273.4397  86.6342 15.27587163124199","mean_motion":15.27587163,"eccentricity":9.81e-5,"inclination_deg":43.0021,"raan_deg":62.0142,"arg_perigee_deg":273.4397,"mean_anomaly_deg":86.6342,"bstar":4.7723e-5,"rev_number":12419,"period_min":94.266306687994,"perigee_km":482.35456727267,"apogee_km":483.70072777651,"semimajor_km":6861.1646475246,"source":"CELESTRAK","updated_at":"2026-05-25T13:38:18.870668Z"}}